[[{"header":{"parameterUnit":"m.s-1","parameterCategory":2,"la1":30.2991,"la2":30.254,"lo1":-89.0895,"lo2":-89.0444,"dy":0.0017,"dx":0.0017,"nx":28,"ny":28,"refTime":"2025-11-30T03:00:00:Z","depth":"0","parameterNumber":2,"parameterNumberName":"U-component_of_CURRENTS"},"data":[0,0,0,0,0,0,0,0,0,0,0,0,0,0,0,0,0,0,0,0,0,0,0,0,0,0,0,0,0,0,0,0,0,0,0,0,0,0,0,0,0,0,0,0,0,0,0,0,0,0,0,0,0,0,0,0,0,0,-0.2134,-0.2134,0,-0.2122,-0.2122,-0.2122,-0.2094,-0.2094,-0.2094,-0.2093,-0.2024,-0.2022,-0.2021,0,0,0,0,0,0,0,0,0,0,0,0,0,-0.21,-0.2101,-0.2134,-0.2134,-0.2134,-0.2123,-0.2122,-0.2122,-0.2094,-0.2094,-0.2094,-0.2093,-0.2024,-0.2023,-0.2021,0,0,0,0,0,0,0,0,0,0,0,0,0,-0.2102,-0.2101,-0.2134,-0.2121,-0.212,-0.2123,-0.2122,-0.2121,-0.2094,-0.2094,-0.2093,-0.2093,-0.2025,-0.2023,-0.202,-0.2015,0,0,-0.2013,-0.2012,0,0,0,0,0,0,0,0,-0.2102,-0.2103,-0.2123,-0.2122,-0.2121,-0.2112,-0.2085,-0.2084,-0.2094,-0.2101,-0.2093,-0.2093,-0.205,-0.2046,-0.2041,-0.2011,-0.2008,-0.2013,-0.2012,-0.2011,-0.201,0,0,0,0,0,0,0,-0.2102,-0.2103,-0.2126,-0.2123,-0.2122,-0.2106,-0.2105,-0.2085,-0.2075,-0.21,-0.2099,-0.2103,-0.2049,-0.2044,-0.2039,-0.2007,-0.2013,-0.2011,-0.201,-0.2009,-0.1964,-0.1964,0,0,0,0,0,0,-0.2112,-0.2103,-0.2127,-0.2126,-0.2114,-0.2107,-0.2106,-0.2113,-0.2076,-0.2072,-0.2103,-0.2102,-0.2048,-0.2042,-0.2037,-0.2028,-0.2011,-0.2008,-0.2007,-0.1964,-0.1964,-0.1964,0,0,0,0,0,0,-0.2111,-0.2114,-0.2127,-0.2116,-0.2117,-0.2109,-0.2116,-0.2113,-0.2107,-0.208,-0.2073,-0.2101,-0.2047,-0.204,-0.2022,-0.2025,-0.2007,-0.2005,-0.1964,-0.1964,-0.1964,-0.2009,0,0,0,0,0,0,-0.211,-0.2114,-0.2116,-0.2117,-0.2118,-0.2133,-0.2116,-0.2113,-0.2112,-0.2109,-0.2075,-0.2069,-0.2046,-0.2026,-0.202,-0.2021,-0.2003,-0.1963,-0.1964,-0.1964,-0.2008,-0.2011,-0.2014,0,0,0,0,0,-0.2109,-0.2118,-0.2116,-0.2119,-0.2124,-0.2134,-0.2133,-0.2122,-0.2112,-0.2114,-0.2091,-0.207,-0.2024,-0.2024,-0.2017,-0.2018,-0.1963,-0.1964,-0.1964,-0.2006,-0.2011,-0.2014,0,0,0,0,0,0,-0.2102,-0.2117,-0.2114,-0.2126,-0.2132,-0.2131,-0.213,-0.2126,-0.211,-0.2103,-0.2073,-0.2065,-0.205,-0.2029,-0.203,-0.2006,-0.1989,-0.1989,-0.2024,-0.2028,-0.2031,-0.203,-0.2001,0,0,0,0,0,-0.2104,-0.2113,-0.2125,-0.2131,-0.2137,-0.2134,-0.2134,-0.2131,-0.2121,-0.2114,-0.2092,-0.2067,-0.2048,-0.2034,-0.2014,-0.2001,-0.1969,-0.1996,-0.2,-0.2003,-0.1997,-0.1957,-0.1957,-0.1966,-0.1966,-0.1966,0,0,-0.2101,-0.2111,-0.2114,-0.213,-0.2131,-0.2145,-0.2132,-0.2138,-0.2142,-0.2108,-0.2099,-0.2078,-0.2047,-0.2035,-0.2026,-0.2016,-0.1984,-0.2003,-0.2006,-0.1999,-0.1958,-0.1957,-0.1956,-0.1966,-0.1966,-0.1966,0,0,-0.2107,-0.2112,-0.2125,-0.2135,-0.2147,-0.2149,-0.2154,-0.2156,-0.2148,-0.2145,-0.2119,-0.2099,-0.2074,-0.205,-0.2036,-0.2044,-0.2005,-0.2041,-0.2054,-0.2016,-0.2015,-0.2013,-0.1976,-0.1971,-0.2041,-0.2041,-0.2041,0,-0.2103,-0.2122,-0.2128,-0.2148,-0.2156,-0.2154,-0.217,-0.2167,-0.2161,-0.2151,-0.2147,-0.2103,-0.208,-0.2055,-0.2061,-0.205,-0.2024,-0.2043,-0.202,-0.2018,-0.2016,-0.1978,-0.1971,-0.2043,-0.2043,-0.2042,-0.2042,0,-0.2121,-0.2137,-0.2147,-0.217,-0.2181,-0.2193,-0.22,-0.22,-0.2192,-0.2182,-0.2159,-0.213,-0.2102,-0.2095,-0.2082,-0.2056,-0.2041,-0.2032,-0.2011,-0.2017,-0.1977,-0.197,-0.2046,-0.2045,-0.2045,-0.2044,0,0,-0.2105,-0.2151,-0.2151,-0.2169,-0.2193,-0.2204,-0.2214,-0.2216,-0.2214,-0.2198,-0.2186,-0.2156,-0.2135,-0.2117,-0.2094,-0.2063,-0.203,-0.2046,-0.2043,-0.201,-0.1946,-0.1889,-0.1875,-0.2019,-0.2017,-0.2017,-0.1926,0,-0.2113,-0.2152,-0.2172,-0.2202,-0.2223,-0.2232,-0.2242,-0.2242,-0.2233,-0.2221,-0.2182,-0.2164,-0.2145,-0.2135,-0.2101,-0.2049,-0.2012,-0.2055,-0.1942,-0.1939,-0.1889,-0.1865,-0.1866,-0.1781,-0.1918,-0.1917,-0.1916,0,-0.2118,-0.2147,-0.218,-0.2223,-0.2232,-0.2246,-0.2257,-0.2269,-0.2252,-0.2245,-0.2217,-0.2189,-0.2144,-0.2131,-0.2033,-0.2063,-0.2008,-0.1964,-0.1959,-0.1883,-0.1868,-0.1795,-0.1761,-0.1773,-0.1904,-0.1905,-0.1906,0,-0.2096,-0.2148,-0.2173,-0.2188,-0.2236,-0.2245,-0.2263,-0.2264,-0.2268,-0.2255,-0.2248,-0.2195,-0.2159,-0.2091,-0.2002,-0.2019,-0.1887,-0.1897,-0.1788,-0.1784,-0.1748,-0.1742,-0.1711,-0.1819,-0.1819,-0.1819,-0.1819,0,-0.2093,-0.2113,-0.2165,-0.218,-0.2203,-0.224,-0.2254,-0.2266,-0.2274,-0.226,-0.2254,-0.2215,-0.2147,-0.2065,-0.1997,-0.1858,-0.1876,-0.1776,-0.175,-0.1764,-0.176,-0.1739,-0.1739,-0.1816,-0.1816,-0.1817,-0.1818,0,-0.206,-0.2098,-0.2128,-0.2179,-0.2195,-0.2207,-0.2253,-0.2262,-0.228,-0.2262,-0.2258,-0.2214,-0.2097,-0.2017,-0.1888,-0.1833,-0.1692,-0.167,-0.1689,-0.1666,-0.1581,-0.1583,-0.1462,-0.1414,-0.154,-0.1538,-0.1536,0,-0.2044,-0.2058,-0.2112,-0.2128,-0.2149,-0.2181,-0.2203,-0.2248,-0.226,-0.2238,-0.222,-0.2123,-0.2014,-0.1823,-0.1721,-0.1583,-0.1578,-0.1515,-0.1541,-0.156,-0.1544,-0.1543,-0.1512,-0.1517,-0.1515,-0.1514,-0.1513,0,-0.2001,-0.2017,-0.204,-0.208,-0.2106,-0.2142,-0.2176,-0.2182,-0.2215,-0.2168,-0.2076,-0.1986,-0.184,-0.1687,-0.1549,-0.1471,-0.1503,-0.1479,-0.1496,-0.1509,-0.1508,-0.1456,-0.1601,-0.15,-0.1501,-0.1502,-0.1503,-0.1504,-0.1948,-0.1953,-0.1983,-0.2008,-0.2049,-0.2071,-0.2015,-0.2045,-0.1998,-0.1862,-0.1899,-0.1684,-0.1692,-0.1482,-0.1415,-0.1365,-0.1347,-0.1361,-0.1357,-0.1352,-0.1315,-0.1423,-0.1293,-0.1294,-0.1294,-0.1294,-0.1294,0,-0.1877,-0.1889,-0.1912,-0.1921,-0.191,-0.1967,-0.196,-0.1842,-0.169,-0.1611,-0.1474,-0.1379,-0.1349,-0.134,-0.135,-0.1297,-0.1278,-0.1273,-0.1311,-0.1279,-0.1381,-0.1394,-0.1283,-0.1283,-0.1283,-0.1283,-0.1283,-0.1283,-0.1838,-0.1828,-0.184,-0.1774,-0.1764,-0.1623,-0.1564,-0.1422,-0.1299,-0.1041,-0.0893,-0.0839,-0.1023,-0.1277,-0.1329,-0.1296,-0.1262,-0.1229,-0.1188,-0.1331,-0.1342,-0.1352,-0.1367,-0.1252,-0.1252,-0.1103,-0.1102,-0.1101]},{"header":{"parameterUnit":"m.s-1","parameterCategory":2,"la1":30.2991,"la2":30.254,"lo1":-89.0895,"lo2":-89.0444,"dy":0.0017,"dx":0.0017,"nx":28,"ny":28,"refTime":"2025-11-30T03:00:00:Z","depth":"0","parameterNumber":3,"parameterNumberName":"V-component_of_CURRENTS"},"data":[0,0,0,0,0,0,0,0,0,0,0,0,0,0,0,0,0,0,0,0,0,0,0,0,0,0,0,0,0,0,0,0,0,0,0,0,0,0,0,0,0,0,0,0,0,0,0,0,0,0,0,0,0,0,0,0,0,0,-0.0165,-0.0164,0,-0.0095,-0.0094,-0.0093,-0.0048,-0.0048,-0.0048,-0.0048,0.0034,0.0036,0.0037,0,0,0,0,0,0,0,0,0,0,0,0,0,-0.0212,-0.0211,-0.0165,-0.0164,-0.0163,-0.0095,-0.0094,-0.0093,-0.0048,-0.0048,-0.0048,-0.0047,0.0033,0.0035,0.0038,0,0,0,0,0,0,0,0,0,0,0,0,0,-0.0171,-0.0211,-0.0165,-0.0133,-0.013,-0.0095,-0.0094,-0.0092,-0.0048,-0.0048,-0.0048,-0.0047,0.0032,0.0035,0.0038,0.0051,0,0,0.0047,0.0048,0,0,0,0,0,0,0,0,-0.0173,-0.0169,-0.0139,-0.0136,-0.0132,-0.008,-0.008,-0.0044,-0.0048,-0.0078,-0.0048,-0.0047,-0.0004,0.0002,0.0015,0.0054,0.0058,0.0047,0.0049,0.005,0.0051,0,0,0,0,0,0,0,-0.0176,-0.0172,-0.0136,-0.0138,-0.0134,-0.0106,-0.01,-0.0073,-0.0043,-0.0076,-0.0073,-0.0066,-0.0002,0.0012,0.0017,0.0059,0.0047,0.005,0.0052,0.0053,0.0132,0.0132,0,0,0,0,0,0,-0.0189,-0.0175,-0.0138,-0.0134,-0.0153,-0.0106,-0.0099,-0.0097,-0.0043,-0.0035,-0.0066,-0.0064,0.0007,0.0014,0.0021,0.005,0.005,0.0053,0.0055,0.0131,0.0132,0.0132,0,0,0,0,0,0,-0.0191,-0.0187,-0.0141,-0.0153,-0.0145,-0.0106,-0.0103,-0.0095,-0.0082,-0.0037,-0.0028,-0.0061,0.0008,0.0016,0.0047,0.0053,0.0054,0.0057,0.0131,0.0132,0.0132,0.0102,0,0,0,0,0,0,-0.0192,-0.0188,-0.0193,-0.0154,-0.0145,-0.0127,-0.0103,-0.0094,-0.0079,-0.0075,-0.0029,-0.0021,0.0008,0.0043,0.005,0.0057,0.006,0.0131,0.0131,0.0132,0.0102,0.0101,0.01,0,0,0,0,0,-0.0194,-0.0205,-0.0194,-0.0189,-0.0153,-0.0127,-0.012,-0.0089,-0.0079,-0.0076,-0.004,-0.0023,0.0052,0.0045,0.0054,0.0062,0.013,0.0131,0.0132,0.0103,0.0101,0.01,0,0,0,0,0,0,-0.0229,-0.02,-0.0187,-0.0189,-0.0162,-0.012,-0.0117,-0.0095,-0.0064,-0.0062,-0.0019,-0.0008,0.002,0.0045,0.0036,0.0087,0.0094,0.0097,0.0069,0.0068,0.0067,0.0062,0.0062,0,0,0,0,0,-0.0239,-0.024,-0.0204,-0.0206,-0.0196,-0.0157,-0.0144,-0.0123,-0.009,-0.0077,-0.0042,-0.0005,0.003,0.0051,0.0081,0.0108,0.0147,0.0119,0.0118,0.0117,0.012,0.0178,0.0182,0.0134,0.0134,0.0134,0,0,-0.0254,-0.0238,-0.0239,-0.0213,-0.0192,-0.018,-0.0149,-0.0134,-0.0118,-0.0073,-0.0046,-0.0012,0.0035,0.0067,0.0083,0.0089,0.0153,0.0118,0.0117,0.012,0.0179,0.0184,0.0188,0.0135,0.0135,0.0135,0,0,-0.0285,-0.0269,-0.0281,-0.026,-0.0232,-0.0204,-0.0202,-0.0161,-0.0138,-0.0108,-0.0069,-0.0028,0.0017,0.0062,0.0088,0.0099,0.0141,0.0104,0.0101,0.0157,0.0161,0.0165,0.0229,0.024,0.0108,0.0108,0.0108,0,-0.0305,-0.031,-0.0279,-0.028,-0.0265,-0.0218,-0.0219,-0.0186,-0.0139,-0.0113,-0.0107,-0.0015,0.0018,0.0079,0.0082,0.0097,0.0136,0.0101,0.0155,0.016,0.0165,0.023,0.0241,0.0107,0.0107,0.0107,0.0107,0,-0.034,-0.034,-0.0345,-0.0328,-0.0306,-0.0301,-0.0251,-0.0224,-0.0191,-0.015,-0.0091,-0.0035,0.0023,0.004,0.0064,0.012,0.014,0.0142,0.0157,0.0168,0.0235,0.0248,0.0105,0.0105,0.0106,0.0106,0,0,-0.0392,-0.0375,-0.0376,-0.0374,-0.0331,-0.0318,-0.0285,-0.0235,-0.0202,-0.0152,-0.0102,-0.0038,0.0001,0.0034,0.0078,0.0129,0.0197,0.0146,0.015,0.0206,0.0331,0.0416,0.0438,0.0207,0.0209,0.021,0.0366,0,-0.0429,-0.0452,-0.042,-0.0423,-0.0428,-0.0364,-0.0331,-0.0276,-0.0218,-0.0157,-0.0081,-0.0023,-0.0002,0.0032,0.0084,0.0174,0.0228,0.0156,0.0314,0.0319,0.0391,0.0455,0.0567,0.0722,0.0379,0.0381,0.0383,0,-0.0471,-0.048,-0.0502,-0.0468,-0.046,-0.0448,-0.0377,-0.0339,-0.0235,-0.0187,-0.0109,-0.0041,0.0057,0.006,0.0221,0.0173,0.0244,0.0308,0.0316,0.0415,0.0429,0.0655,0.0759,0.0886,0.0403,0.0401,0.04,0,-0.0534,-0.0529,-0.0551,-0.0543,-0.05,-0.0485,-0.045,-0.0356,-0.0305,-0.02,-0.0139,-0.0029,0.0056,0.0147,0.0295,0.0256,0.0478,0.044,0.0586,0.0593,0.0732,0.0748,0.0978,0.0542,0.0542,0.0541,0.0541,0,-0.0587,-0.0599,-0.0586,-0.06,-0.0603,-0.0544,-0.0511,-0.0453,-0.0348,-0.026,-0.0162,-0.0046,0.0082,0.0234,0.0318,0.0525,0.0504,0.0612,0.0649,0.0726,0.0739,0.0889,0.0887,0.0547,0.0546,0.0545,0.0544,0,-0.0652,-0.0645,-0.0669,-0.0647,-0.0639,-0.0643,-0.0567,-0.0521,-0.0415,-0.0292,-0.0251,-0.0041,0.0185,0.0332,0.0527,0.0592,0.0845,0.0815,0.0905,0.095,0.1173,0.1163,0.1363,0.1458,0.0992,0.0995,0.0998,0,-0.0687,-0.0712,-0.0722,-0.0736,-0.0731,-0.0717,-0.0686,-0.0583,-0.0506,-0.0259,-0.0186,0.0069,0.0296,0.0626,0.0811,0.1013,0.1034,0.1182,0.1119,0.1238,0.1254,0.1202,0.1263,0.1295,0.13,0.1304,0.1308,0,-0.075,-0.0757,-0.078,-0.0815,-0.081,-0.0776,-0.0713,-0.0655,-0.0476,-0.0334,-0.0066,0.014,0.0534,0.0871,0.114,0.1243,0.1292,0.1269,0.1383,0.1516,0.1487,0.158,0.1131,0.1344,0.134,0.1337,0.1335,0.1334,-0.0788,-0.0828,-0.0857,-0.0881,-0.0871,-0.0801,-0.0751,-0.0619,-0.0461,-0.014,0.0002,0.0402,0.0865,0.1303,0.1423,0.1732,0.1596,0.1783,0.1764,0.1703,0.1795,0.1429,0.1678,0.1677,0.1675,0.1674,0.1673,0,-0.0829,-0.0868,-0.0908,-0.091,-0.0885,-0.0861,-0.0735,-0.062,-0.0404,-0.0016,0.0248,0.0856,0.1309,0.1686,0.2094,0.2215,0.2195,0.226,0.2229,0.2269,0.1976,0.1992,0.2334,0.2334,0.2334,0.2334,0.2333,0.2333,-0.0849,-0.0908,-0.093,-0.0911,-0.0896,-0.081,-0.0729,-0.051,-0.0225,0.0381,0.0835,0.1153,0.1597,0.2174,0.2564,0.2596,0.2667,0.2644,0.2655,0.2463,0.2417,0.2372,0.2393,0.2814,0.2814,0.2993,0.2995,0.2996]}],[{"header":{"parameterUnit":"m.s-1","parameterCategory":2,"la1":30.2991,"la2":30.254,"lo1":-89.0895,"lo2":-89.0444,"dy":0.0017,"dx":0.0017,"nx":28,"ny":28,"refTime":"2025-11-30T03:00:00:Z","depth":"2","parameterNumber":2,"parameterNumberName":"U-component_of_CURRENTS"},"data":[0,0,0,0,0,0,0,0,0,0,0,0,0,0,0,0,0,0,0,0,0,0,0,0,0,0,0,0,0,0,0,0,0,0,0,0,0,0,0,0,0,0,0,0,0,0,0,0,0,0,0,0,0,0,0,0,0,0,-0.2095,-0.2095,0,-0.2084,-0.2083,-0.2083,-0.2057,-0.2057,-0.2056,-0.2056,-0.1988,-0.1986,-0.1985,0,0,0,0,0,0,0,0,0,0,0,0,0,-0.2062,-0.2062,-0.2095,-0.2095,-0.2095,-0.2084,-0.2083,-0.2083,-0.2057,-0.2057,-0.2056,-0.2056,-0.1988,-0.1986,-0.1984,0,0,0,0,0,0,0,0,0,0,0,0,0,-0.2063,-0.2063,-0.2095,-0.2083,-0.2082,-0.2084,-0.2083,-0.2083,-0.2057,-0.2056,-0.2056,-0.2056,-0.1989,-0.1987,-0.1984,-0.1978,0,0,-0.1977,-0.1976,0,0,0,0,0,0,0,0,-0.2063,-0.2064,-0.2084,-0.2084,-0.2083,-0.2074,-0.2047,-0.2046,-0.2057,-0.2063,-0.2056,-0.2056,-0.2014,-0.2009,-0.2004,-0.1975,-0.1972,-0.1977,-0.1975,-0.1974,-0.1974,0,0,0,0,0,0,0,-0.2063,-0.2064,-0.2087,-0.2085,-0.2084,-0.2068,-0.2067,-0.2046,-0.2037,-0.2063,-0.2061,-0.2065,-0.2012,-0.2007,-0.2002,-0.1971,-0.1977,-0.1975,-0.1973,-0.1972,-0.1928,-0.1928,0,0,0,0,0,0,-0.2073,-0.2064,-0.2088,-0.2087,-0.2075,-0.2069,-0.2068,-0.2075,-0.2039,-0.2034,-0.2066,-0.2064,-0.2011,-0.2005,-0.2,-0.1991,-0.1974,-0.1972,-0.1971,-0.1928,-0.1928,-0.1928,0,0,0,0,0,0,-0.2072,-0.2075,-0.2088,-0.2078,-0.2079,-0.2071,-0.2077,-0.2075,-0.207,-0.2042,-0.2036,-0.2064,-0.201,-0.2003,-0.1986,-0.1988,-0.1971,-0.1969,-0.1927,-0.1928,-0.1928,-0.1973,0,0,0,0,0,0,-0.2071,-0.2075,-0.2077,-0.2079,-0.208,-0.2094,-0.2078,-0.2075,-0.2074,-0.2072,-0.2038,-0.2032,-0.201,-0.1989,-0.1983,-0.1985,-0.1967,-0.1927,-0.1928,-0.1928,-0.1972,-0.1975,-0.1978,0,0,0,0,0,-0.207,-0.2079,-0.2078,-0.208,-0.2085,-0.2095,-0.2094,-0.2084,-0.2075,-0.2077,-0.2054,-0.2033,-0.1987,-0.1988,-0.1981,-0.1982,-0.1927,-0.1927,-0.1928,-0.197,-0.1975,-0.1978,0,0,0,0,0,0,-0.2064,-0.2078,-0.2076,-0.2088,-0.2093,-0.2092,-0.2092,-0.2088,-0.2072,-0.2066,-0.2036,-0.2028,-0.2014,-0.1992,-0.1993,-0.197,-0.1953,-0.1952,-0.1988,-0.1992,-0.1995,-0.1994,-0.1965,0,0,0,0,0,-0.2066,-0.2074,-0.2086,-0.2093,-0.2099,-0.2095,-0.2096,-0.2093,-0.2084,-0.2077,-0.2055,-0.203,-0.2011,-0.1998,-0.1977,-0.1965,-0.1933,-0.196,-0.1964,-0.1967,-0.1961,-0.1922,-0.1921,-0.193,-0.193,-0.193,0,0,-0.2063,-0.2073,-0.2076,-0.2092,-0.2093,-0.2106,-0.2094,-0.21,-0.2104,-0.2071,-0.2062,-0.2041,-0.2011,-0.1998,-0.1989,-0.198,-0.1948,-0.1967,-0.197,-0.1963,-0.1922,-0.1921,-0.192,-0.193,-0.193,-0.193,0,0,-0.2069,-0.2074,-0.2086,-0.2097,-0.2109,-0.211,-0.2116,-0.2118,-0.2111,-0.2107,-0.2082,-0.2063,-0.2038,-0.2014,-0.2,-0.2008,-0.1969,-0.2005,-0.2018,-0.1981,-0.1979,-0.1978,-0.1941,-0.1936,-0.2004,-0.2005,-0.2005,0,-0.2065,-0.2083,-0.209,-0.2109,-0.2118,-0.2116,-0.2132,-0.2129,-0.2123,-0.2113,-0.2109,-0.2066,-0.2043,-0.2019,-0.2025,-0.2014,-0.1988,-0.2007,-0.1985,-0.1983,-0.198,-0.1943,-0.1937,-0.2007,-0.2007,-0.2006,-0.2006,0,-0.2083,-0.2099,-0.2108,-0.2131,-0.2142,-0.2154,-0.2161,-0.2161,-0.2154,-0.2144,-0.2122,-0.2093,-0.2065,-0.2059,-0.2046,-0.202,-0.2006,-0.1996,-0.1975,-0.1982,-0.1942,-0.1935,-0.201,-0.2009,-0.2009,-0.2008,0,0,-0.2067,-0.2112,-0.2113,-0.213,-0.2154,-0.2165,-0.2175,-0.2177,-0.2176,-0.216,-0.2149,-0.2119,-0.2099,-0.2081,-0.2058,-0.2028,-0.1995,-0.2011,-0.2008,-0.1976,-0.1912,-0.1857,-0.1843,-0.1984,-0.1983,-0.1982,-0.1893,0,-0.2075,-0.2114,-0.2133,-0.2163,-0.2184,-0.2193,-0.2203,-0.2203,-0.2195,-0.2183,-0.2145,-0.2127,-0.2109,-0.2099,-0.2065,-0.2014,-0.1977,-0.202,-0.1908,-0.1905,-0.1856,-0.1833,-0.1689,-0.1593,-0.1885,-0.1884,-0.1883,0,-0.208,-0.2108,-0.2141,-0.2183,-0.2192,-0.2207,-0.2218,-0.2229,-0.2213,-0.2207,-0.218,-0.2153,-0.2108,-0.2095,-0.1999,-0.2029,-0.1973,-0.193,-0.1926,-0.185,-0.1835,-0.1632,-0.1568,-0.187,-0.1871,-0.1872,-0.1873,0,-0.2059,-0.211,-0.2134,-0.215,-0.2197,-0.2206,-0.2224,-0.2225,-0.223,-0.2217,-0.2212,-0.2159,-0.2124,-0.2057,-0.1969,-0.1986,-0.1856,-0.1864,-0.1757,-0.1753,-0.1594,-0.1578,-0.1787,-0.1787,-0.1787,-0.1787,-0.1788,0,-0.2056,-0.2075,-0.2127,-0.2142,-0.2165,-0.2202,-0.2216,-0.2228,-0.2237,-0.2223,-0.2218,-0.2179,-0.2112,-0.2033,-0.1965,-0.1827,-0.1845,-0.1745,-0.1719,-0.1607,-0.1594,-0.1807,-0.181,-0.1784,-0.1785,-0.1786,-0.1786,0,-0.2023,-0.206,-0.2091,-0.2142,-0.2157,-0.2169,-0.2215,-0.2225,-0.2243,-0.2225,-0.2222,-0.218,-0.2065,-0.1986,-0.1859,-0.1804,-0.1695,-0.1642,-0.1517,-0.1478,-0.1623,-0.163,-0.1518,-0.1515,-0.1513,-0.1511,-0.1509,0,-0.2008,-0.2021,-0.2075,-0.2092,-0.2113,-0.2146,-0.2167,-0.2212,-0.2223,-0.2202,-0.2184,-0.209,-0.1974,-0.1787,-0.1638,-0.1489,-0.1586,-0.1339,-0.1344,-0.1605,-0.1592,-0.1603,-0.1613,-0.115,-0.1146,-0.1142,-0.1139,0,-0.1966,-0.1981,-0.2005,-0.2046,-0.2072,-0.2108,-0.2142,-0.2147,-0.2179,-0.2126,-0.2032,-0.1935,-0.1747,-0.1496,-0.1344,-0.1262,-0.1358,-0.1261,-0.1531,-0.1256,-0.1255,-0.1244,-0.1266,-0.1107,-0.111,-0.1112,-0.1114,-0.1115,-0.1914,-0.1919,-0.195,-0.1976,-0.2017,-0.2039,-0.198,-0.1993,-0.1938,-0.177,-0.1832,-0.1564,-0.1501,-0.1107,-0.104,-0.098,-0.1074,-0.1061,-0.1073,-0.1089,-0.1078,-0.1074,-0.0889,-0.0891,-0.0892,-0.0894,-0.0895,0,-0.1802,-0.1857,-0.1881,-0.189,-0.1824,-0.1936,-0.1925,-0.1786,-0.1603,-0.1487,-0.1327,-0.1056,-0.09,-0.0839,-0.066,-0.0671,-0.068,-0.0696,-0.0701,-0.0732,-0.0761,-0.0735,-0.0454,-0.0453,-0.0452,-0.0451,0,0,-0.1753,-0.172,-0.1731,-0.1634,-0.1667,-0.1565,-0.1502,-0.1321,-0.1165,-0.0858,-0.0658,-0.068,-0.0708,-0.0511,-0.0533,-0.045,-0.0582,-0.0432,-0.0776,-0.0803,-0.083,-0.0952,-0.0945,0,0,0,0,0]},{"header":{"parameterUnit":"m.s-1","parameterCategory":2,"la1":30.2991,"la2":30.254,"lo1":-89.0895,"lo2":-89.0444,"dy":0.0017,"dx":0.0017,"nx":28,"ny":28,"refTime":"2025-11-30T03:00:00:Z","depth":"2","parameterNumber":3,"parameterNumberName":"V-component_of_CURRENTS"},"data":[0,0,0,0,0,0,0,0,0,0,0,0,0,0,0,0,0,0,0,0,0,0,0,0,0,0,0,0,0,0,0,0,0,0,0,0,0,0,0,0,0,0,0,0,0,0,0,0,0,0,0,0,0,0,0,0,0,0,-0.0206,-0.0205,0,-0.0136,-0.0135,-0.0134,-0.0089,-0.0089,-0.0089,-0.0089,-0.0008,-0.0006,-0.0004,0,0,0,0,0,0,0,0,0,0,0,0,0,-0.0252,-0.0252,-0.0206,-0.0205,-0.0204,-0.0136,-0.0135,-0.0134,-0.0089,-0.0089,-0.0089,-0.0089,-0.0008,-0.0006,-0.0004,0,0,0,0,0,0,0,0,0,0,0,0,0,-0.0212,-0.0252,-0.0206,-0.0174,-0.0171,-0.0136,-0.0135,-0.0134,-0.0089,-0.0089,-0.0089,-0.0088,-0.0009,-0.0006,-0.0003,0.0008,0,0,0.0006,0.0007,0,0,0,0,0,0,0,0,-0.0214,-0.021,-0.018,-0.0176,-0.0172,-0.0122,-0.0122,-0.0086,-0.0089,-0.0119,-0.0089,-0.0088,-0.0045,-0.004,-0.0026,0.0012,0.0016,0.0006,0.0008,0.0009,0.001,0,0,0,0,0,0,0,-0.0217,-0.0212,-0.0177,-0.0179,-0.0174,-0.0147,-0.0141,-0.0114,-0.0084,-0.0117,-0.0114,-0.0107,-0.0043,-0.0029,-0.0024,0.0017,0.0006,0.0008,0.001,0.0011,0.0089,0.009,0,0,0,0,0,0,-0.023,-0.0215,-0.018,-0.0175,-0.0194,-0.0147,-0.014,-0.0138,-0.0085,-0.0077,-0.0107,-0.0105,-0.0034,-0.0027,-0.0021,0.0009,0.0009,0.0012,0.0013,0.0089,0.0089,0.009,0,0,0,0,0,0,-0.0231,-0.0228,-0.0182,-0.0194,-0.0186,-0.0147,-0.0144,-0.0136,-0.0123,-0.0078,-0.0069,-0.0102,-0.0034,-0.0025,0.0006,0.0012,0.0013,0.0016,0.0089,0.0089,0.009,0.006,0,0,0,0,0,0,-0.0233,-0.0229,-0.0233,-0.0195,-0.0186,-0.0168,-0.0144,-0.0135,-0.012,-0.0116,-0.007,-0.0062,-0.0033,0.0001,0.0009,0.0016,0.0018,0.0088,0.0089,0.0089,0.006,0.0059,0.0058,0,0,0,0,0,-0.0235,-0.0245,-0.0234,-0.023,-0.0194,-0.0168,-0.0161,-0.0131,-0.012,-0.0117,-0.0081,-0.0064,0.001,0.0004,0.0013,0.002,0.0088,0.0089,0.0089,0.0061,0.0059,0.0058,0,0,0,0,0,0,-0.0269,-0.0241,-0.0228,-0.0229,-0.0203,-0.0161,-0.0158,-0.0136,-0.0106,-0.0103,-0.006,-0.0049,-0.0021,0.0003,-0.0005,0.0045,0.0052,0.0055,0.0027,0.0026,0.0025,0.0021,0.002,0,0,0,0,0,-0.0279,-0.028,-0.0244,-0.0247,-0.0236,-0.0198,-0.0185,-0.0164,-0.0131,-0.0118,-0.0083,-0.0046,-0.0011,0.0009,0.0039,0.0066,0.0104,0.0077,0.0076,0.0075,0.0078,0.0135,0.0139,0.0092,0.0092,0.0092,0,0,-0.0293,-0.0278,-0.0279,-0.0254,-0.0232,-0.0221,-0.019,-0.0175,-0.0159,-0.0114,-0.0087,-0.0053,-0.0007,0.0025,0.0041,0.0047,0.0111,0.0076,0.0074,0.0078,0.0136,0.0141,0.0145,0.0093,0.0092,0.0092,0,0,-0.0325,-0.0309,-0.032,-0.03,-0.0272,-0.0244,-0.0243,-0.0202,-0.0178,-0.0149,-0.011,-0.0069,-0.0024,0.002,0.0046,0.0056,0.0098,0.0061,0.0059,0.0114,0.0118,0.0123,0.0186,0.0196,0.0066,0.0066,0.0066,0,-0.0344,-0.035,-0.0319,-0.0319,-0.0305,-0.0258,-0.0259,-0.0227,-0.018,-0.0154,-0.0148,-0.0056,-0.0024,0.0036,0.004,0.0054,0.0094,0.0058,0.0113,0.0118,0.0123,0.0187,0.0198,0.0065,0.0065,0.0065,0.0065,0,-0.0379,-0.038,-0.0384,-0.0367,-0.0346,-0.0341,-0.0291,-0.0264,-0.0232,-0.0191,-0.0132,-0.0077,-0.0019,-0.0002,0.0022,0.0078,0.0097,0.0099,0.0114,0.0125,0.0192,0.0205,0.0063,0.0063,0.0064,0.0064,0,0,-0.0431,-0.0415,-0.0415,-0.0413,-0.0371,-0.0358,-0.0325,-0.0276,-0.0243,-0.0193,-0.0144,-0.008,-0.0041,-0.0009,0.0036,0.0086,0.0154,0.0103,0.0107,0.0164,0.0287,0.0373,0.0395,0.0164,0.0166,0.0167,0.0323,0,-0.0467,-0.049,-0.0459,-0.0463,-0.0468,-0.0404,-0.0372,-0.0317,-0.0259,-0.0199,-0.0123,-0.0065,-0.0045,-0.001,0.0042,0.0131,0.0185,0.0113,0.027,0.0275,0.0348,0.0412,0.0121,0.0241,0.0335,0.0337,0.0339,0,-0.0509,-0.0519,-0.0541,-0.0508,-0.05,-0.0488,-0.0418,-0.038,-0.0277,-0.0229,-0.0152,-0.0084,0.0013,0.0017,0.0177,0.013,0.0201,0.0265,0.0272,0.0372,0.0385,0.0244,0.0261,0.0361,0.0359,0.0357,0.0356,0,-0.0571,-0.0567,-0.059,-0.0582,-0.054,-0.0525,-0.049,-0.0397,-0.0347,-0.0243,-0.0182,-0.0072,0.0013,0.0103,0.0252,0.0212,0.0433,0.0395,0.0541,0.0548,0.0344,0.0331,0.0497,0.0497,0.0496,0.0496,0.0495,0,-0.0625,-0.0636,-0.0624,-0.0638,-0.0642,-0.0584,-0.0552,-0.0494,-0.0389,-0.0303,-0.0205,-0.009,0.0039,0.0191,0.0274,0.0481,0.046,0.0567,0.0604,0.0329,0.0314,0.0443,0.0434,0.0502,0.05,0.0499,0.0498,0,-0.0688,-0.0682,-0.0706,-0.0685,-0.0678,-0.0682,-0.0607,-0.0562,-0.0457,-0.0336,-0.0296,-0.0086,0.014,0.0288,0.0482,0.0548,0.0702,0.077,0.0459,0.0459,0.0764,0.0752,0.0937,0.0942,0.0946,0.0949,0.0952,0,-0.0723,-0.0748,-0.0759,-0.0773,-0.0769,-0.0755,-0.0725,-0.0623,-0.0548,-0.0305,-0.0232,0.0022,0.0221,0.0553,0.0589,0.0749,0.087,0.0718,0.0599,0.0798,0.0814,0.0796,0.078,0.0301,0.0298,0.0296,0.0294,0,-0.0786,-0.0793,-0.0816,-0.0851,-0.0847,-0.0814,-0.0752,-0.0696,-0.052,-0.0392,-0.0135,0.0043,0.0287,0.0366,0.059,0.065,0.0662,0.0688,0.096,0.027,0.022,0.023,0.0229,0.0273,0.0276,0.0277,0.0278,0.0279,-0.0824,-0.0863,-0.0892,-0.0917,-0.0907,-0.0838,-0.0794,-0.0695,-0.0556,-0.0358,-0.0132,0.0055,0.0129,0.0294,0.0427,0.0506,0.0557,0.0585,0.0581,0.0582,0.0516,0.048,0.0569,0.0572,0.0575,0.0578,0.058,0,-0.0879,-0.0903,-0.0943,-0.0946,-0.0955,-0.0898,-0.078,-0.0714,-0.056,-0.0434,-0.0233,-0.0151,-0.0053,0.0112,0.0079,0.0211,0.0077,0.0363,0.0105,0.0121,0.0137,0.004,-0.0029,-0.0028,-0.0027,-0.0027,0,0,-0.0903,-0.0971,-0.0994,-0.1004,-0.0973,-0.0886,-0.0811,-0.0694,-0.0608,-0.0498,-0.0445,-0.0338,-0.0161,-0.0229,-0.0136,-0.0084,0.0013,-0.0075,0.036,0.0045,0.0061,0.0176,0.0037,0,0,0,0,0]}],[{"header":{"parameterUnit":"m.s-1","parameterCategory":2,"la1":30.2991,"la2":30.254,"lo1":-89.0895,"lo2":-89.0444,"dy":0.0017,"dx":0.0017,"nx":28,"ny":28,"refTime":"2025-11-30T03:00:00:Z","depth":"4","parameterNumber":2,"parameterNumberName":"U-component_of_CURRENTS"},"data":[0,0,0,0,0,0,0,0,0,0,0,0,0,0,0,0,0,0,0,0,0,0,0,0,0,0,0,0,0,0,0,0,0,0,0,0,0,0,0,0,0,0,0,0,0,0,0,0,0,0,0,0,0,0,0,0,0,0,-0.1058,-0.1059,0,-0.1096,-0.1097,-0.1097,-0.1117,-0.1117,-0.1117,-0.1118,-0.113,-0.113,-0.113,0,0,0,0,0,0,0,0,0,0,0,0,0,-0.1001,-0.1002,-0.1058,-0.1059,-0.106,-0.1096,-0.1097,-0.1097,-0.1117,-0.1117,-0.1117,-0.1118,-0.113,-0.113,-0.113,0,0,0,0,0,0,0,0,0,0,0,0,0,-0.103,-0.1002,-0.1058,-0.1075,-0.1077,-0.1096,-0.1097,-0.1097,-0.1117,-0.1117,-0.1118,-0.1118,-0.113,-0.113,-0.113,-0.1128,0,0,-0.1131,-0.1131,0,0,0,0,0,0,0,0,-0.1028,-0.1032,-0.1072,-0.1074,-0.1076,-0.1103,-0.1081,-0.1107,-0.1117,-0.1101,-0.1118,-0.1118,-0.1119,-0.112,-0.1126,-0.1129,-0.1129,-0.1131,-0.1131,-0.1132,-0.1132,0,0,0,0,0,0,0,-0.1026,-0.103,-0.1072,-0.1072,-0.1075,-0.1079,-0.1084,-0.1086,-0.1107,-0.1102,-0.1104,-0.111,-0.112,-0.1125,-0.1126,-0.1129,-0.1131,-0.1132,-0.1132,-0.1132,-0.1176,-0.1176,0,0,0,0,0,0,-0.1024,-0.1028,-0.1071,-0.1074,-0.1053,-0.108,-0.1085,-0.1093,-0.1108,-0.111,-0.111,-0.1111,-0.1125,-0.1126,-0.1127,-0.1173,-0.1132,-0.1132,-0.1132,-0.1175,-0.1176,-0.1177,0,0,0,0,0,0,-0.1022,-0.1027,-0.107,-0.1052,-0.1058,-0.1081,-0.109,-0.1094,-0.1118,-0.1114,-0.1116,-0.1132,-0.1125,-0.1126,-0.1149,-0.1172,-0.1132,-0.1132,-0.1173,-0.1175,-0.1176,-0.1234,0,0,0,0,0,0,-0.1021,-0.1027,-0.104,-0.1052,-0.1059,-0.1095,-0.109,-0.1095,-0.1121,-0.1123,-0.1133,-0.1134,-0.1125,-0.1149,-0.115,-0.1171,-0.1133,-0.1172,-0.1174,-0.1176,-0.1231,-0.1237,-0.1243,0,0,0,0,0,-0.1018,-0.1034,-0.1041,-0.1046,-0.1074,-0.1096,-0.11,-0.1116,-0.1122,-0.1137,-0.1147,-0.1134,-0.1161,-0.115,-0.1151,-0.1173,-0.1171,-0.1174,-0.1176,-0.1228,-0.1236,-0.1243,0,0,0,0,0,0,-0.1015,-0.1037,-0.1045,-0.1067,-0.1087,-0.11,-0.1118,-0.1128,-0.1149,-0.1155,-0.1149,-0.115,-0.1177,-0.1168,-0.1156,-0.119,-0.1163,-0.1165,-0.1203,-0.121,-0.1216,-0.1206,-0.1133,0,0,0,0,0,-0.1021,-0.104,-0.1059,-0.1078,-0.1091,-0.1108,-0.1123,-0.1135,-0.115,-0.1161,-0.117,-0.1177,-0.1183,-0.1192,-0.1195,-0.1216,-0.1186,-0.123,-0.1236,-0.1241,-0.1234,-0.1214,-0.1217,-0.1184,-0.1184,-0.1184,0,0,-0.1025,-0.104,-0.1051,-0.108,-0.1097,-0.1121,-0.1118,-0.1147,-0.1171,-0.1157,-0.1198,-0.1199,-0.1193,-0.1218,-0.1228,-0.1216,-0.1235,-0.1244,-0.1248,-0.1238,-0.1216,-0.1219,-0.1222,-0.1186,-0.1185,-0.1185,0,0,-0.1037,-0.1058,-0.1077,-0.1099,-0.113,-0.1142,-0.1156,-0.1183,-0.1202,-0.1236,-0.1231,-0.1245,-0.1265,-0.1262,-0.1261,-0.1301,-0.1266,-0.1309,-0.1334,-0.1316,-0.1318,-0.132,-0.1285,-0.1283,-0.1314,-0.1314,-0.1314,0,-0.1042,-0.1069,-0.1087,-0.1113,-0.1135,-0.1155,-0.1183,-0.1204,-0.1238,-0.1252,-0.1257,-0.1281,-0.1281,-0.1295,-0.1313,-0.1313,-0.1292,-0.1309,-0.1323,-0.1324,-0.1324,-0.1288,-0.1285,-0.1317,-0.1317,-0.1316,-0.1316,0,-0.1063,-0.1095,-0.111,-0.115,-0.1176,-0.1205,-0.1235,-0.1266,-0.129,-0.1305,-0.1335,-0.1336,-0.1345,-0.1354,-0.1348,-0.1358,-0.1338,-0.1331,-0.1303,-0.1331,-0.1291,-0.1287,-0.1322,-0.132,-0.132,-0.1319,0,0,-0.1042,-0.1112,-0.1118,-0.1147,-0.12,-0.1221,-0.1267,-0.1304,-0.133,-0.1361,-0.1383,-0.1402,-0.1399,-0.1397,-0.1392,-0.1382,-0.1374,-0.1366,-0.1364,-0.1328,-0.1323,-0.1235,-0.1221,-0.1374,-0.1374,-0.1374,-0.1293,0,-0.1052,-0.1105,-0.114,-0.1196,-0.1224,-0.1266,-0.1305,-0.1343,-0.1373,-0.14,-0.1402,-0.1422,-0.1417,-0.1425,-0.1416,-0.1385,-0.1366,-0.1395,-0.1303,-0.13,-0.1216,-0.1215,-0.1373,-0.129,-0.1289,-0.1288,-0.1287,0,-0.1051,-0.109,-0.1146,-0.122,-0.1237,-0.1277,-0.1336,-0.1375,-0.1414,-0.1435,-0.1451,-0.1452,-0.1449,-0.144,-0.139,-0.1412,-0.1371,-0.1341,-0.1337,-0.1228,-0.1204,-0.1256,-0.1279,-0.128,-0.128,-0.1281,-0.1281,0,-0.1007,-0.109,-0.1135,-0.1161,-0.1247,-0.1284,-0.1331,-0.1385,-0.1409,-0.1454,-0.1462,-0.1468,-0.1455,-0.1423,-0.1367,-0.1384,-0.1293,-0.1305,-0.118,-0.1173,-0.1251,-0.1251,-0.1256,-0.1256,-0.1256,-0.1256,-0.1257,0,-0.0986,-0.1024,-0.1125,-0.1148,-0.12,-0.1274,-0.1324,-0.1368,-0.1418,-0.142,-0.1473,-0.1449,-0.145,-0.1402,-0.1362,-0.1244,-0.1284,-0.1169,-0.1143,-0.1278,-0.1281,-0.1248,-0.1248,-0.1253,-0.1254,-0.1255,-0.1255,0,-0.0918,-0.0989,-0.1042,-0.1145,-0.1179,-0.1214,-0.1306,-0.1323,-0.1396,-0.1395,-0.1406,-0.1423,-0.1359,-0.1336,-0.1263,-0.121,-0.1129,-0.1076,-0.1205,-0.119,-0.1025,-0.1029,-0.0933,-0.0929,-0.0926,-0.0923,-0.0921,0,-0.0884,-0.0908,-0.1015,-0.1037,-0.1087,-0.1156,-0.1185,-0.1288,-0.1294,-0.1347,-0.1314,-0.1298,-0.1286,-0.1102,-0.1112,-0.1024,-0.1008,-0.097,-0.1014,-0.1005,-0.099,-0.1,-0.1008,-0.0916,-0.0915,-0.0914,-0.0913,0,-0.0806,-0.0853,-0.0889,-0.0934,-0.0978,-0.102,-0.1074,-0.1073,-0.116,-0.1245,-0.1174,-0.1141,-0.106,-0.1009,-0.0946,-0.0891,-0.1006,-0.0936,-0.0943,-0.0985,-0.0983,-0.0974,-0.0986,-0.0902,-0.0903,-0.0904,-0.0905,0,-0.0732,-0.0731,-0.0775,-0.0802,-0.0846,-0.0844,-0.091,-0.0913,-0.0945,-0.1026,-0.099,-0.0985,-0.1021,-0.0936,-0.0877,-0.0821,-0.0812,-0.0792,-0.0806,-0.0819,-0.0823,-0.0807,-0.0633,0,0,0,0,0,-0.0648,-0.0624,-0.0636,-0.0652,-0.0687,-0.0715,-0.0798,-0.0867,-0.0965,-0.0874,-0.0936,-0.0862,-0.0797,-0.0803,-0.0715,-0.0822,-0.0812,-0.072,-0.0796,-0.0839,-0.0852,-0.087,0,0,0,0,0,0,-0.0585,-0.0583,-0.0583,-0.0507,-0.049,-0.0516,-0.0566,-0.0649,-0.0619,-0.0727,-0.0686,-0.0784,-0.0723,-0.0797,-0.0678,-0.0682,-0.0709,-0.0741,-0.0738,-0.0832,-0.0844,-0.0854,-0.0877,0,0,0,0,0]},{"header":{"parameterUnit":"m.s-1","parameterCategory":2,"la1":30.2991,"la2":30.254,"lo1":-89.0895,"lo2":-89.0444,"dy":0.0017,"dx":0.0017,"nx":28,"ny":28,"refTime":"2025-11-30T03:00:00:Z","depth":"4","parameterNumber":3,"parameterNumberName":"V-component_of_CURRENTS"},"data":[0,0,0,0,0,0,0,0,0,0,0,0,0,0,0,0,0,0,0,0,0,0,0,0,0,0,0,0,0,0,0,0,0,0,0,0,0,0,0,0,0,0,0,0,0,0,0,0,0,0,0,0,0,0,0,0,0,0,-0.0491,-0.0491,0,-0.0456,-0.0456,-0.0455,-0.0438,-0.0438,-0.0438,-0.0438,-0.0389,-0.0388,-0.0387,0,0,0,0,0,0,0,0,0,0,0,0,0,-0.0506,-0.0506,-0.0491,-0.0491,-0.049,-0.0456,-0.0456,-0.0455,-0.0438,-0.0438,-0.0438,-0.0438,-0.039,-0.0388,-0.0386,0,0,0,0,0,0,0,0,0,0,0,0,0,-0.0488,-0.0506,-0.0491,-0.0478,-0.0477,-0.0456,-0.0456,-0.0455,-0.0438,-0.0438,-0.0438,-0.0438,-0.039,-0.0388,-0.0386,-0.0372,0,0,-0.038,-0.0379,0,0,0,0,0,0,0,0,-0.0489,-0.0487,-0.048,-0.0479,-0.0477,-0.0452,-0.0443,-0.0427,-0.0438,-0.0452,-0.0438,-0.0438,-0.0409,-0.0406,-0.0398,-0.0369,-0.0367,-0.038,-0.0378,-0.0378,-0.0377,0,0,0,0,0,0,0,-0.049,-0.0488,-0.0476,-0.048,-0.0478,-0.0462,-0.0459,-0.044,-0.043,-0.0451,-0.0449,-0.0447,-0.0408,-0.04,-0.0397,-0.0367,-0.038,-0.0378,-0.0377,-0.0376,-0.031,-0.0309,0,0,0,0,0,0,-0.0498,-0.049,-0.0478,-0.0476,-0.0484,-0.0462,-0.0459,-0.046,-0.043,-0.0426,-0.0447,-0.0446,-0.0404,-0.0399,-0.0395,-0.0371,-0.0378,-0.0376,-0.0375,-0.031,-0.031,-0.0309,0,0,0,0,0,0,-0.0498,-0.0497,-0.0479,-0.0482,-0.0479,-0.0462,-0.0462,-0.0459,-0.0455,-0.0427,-0.0423,-0.0447,-0.0403,-0.0398,-0.0377,-0.0369,-0.0375,-0.0373,-0.0311,-0.031,-0.0309,-0.0326,0,0,0,0,0,0,-0.0499,-0.0498,-0.0504,-0.0483,-0.0479,-0.0472,-0.0462,-0.0458,-0.0454,-0.0452,-0.0426,-0.0422,-0.0403,-0.038,-0.0375,-0.0367,-0.0371,-0.0312,-0.0311,-0.031,-0.0326,-0.0326,-0.0326,0,0,0,0,0,-0.05,-0.0508,-0.0505,-0.0504,-0.0488,-0.0472,-0.0469,-0.0456,-0.0454,-0.0453,-0.0432,-0.0423,-0.037,-0.0378,-0.0372,-0.0363,-0.0312,-0.0311,-0.031,-0.0326,-0.0326,-0.0326,0,0,0,0,0,0,-0.0519,-0.0507,-0.0503,-0.0507,-0.0494,-0.047,-0.0471,-0.046,-0.0443,-0.0444,-0.0418,-0.0411,-0.0389,-0.0373,-0.0383,-0.034,-0.0339,-0.0336,-0.0353,-0.0353,-0.0353,-0.0358,-0.037,0,0,0,0,0,-0.0527,-0.0531,-0.0512,-0.0517,-0.0512,-0.0493,-0.0487,-0.0477,-0.0458,-0.0451,-0.0429,-0.0404,-0.0378,-0.0365,-0.0342,-0.0321,-0.0305,-0.031,-0.0309,-0.0309,-0.0309,-0.0272,-0.0269,-0.0305,-0.0305,-0.0305,0,0,-0.0537,-0.053,-0.0534,-0.0522,-0.0512,-0.0505,-0.049,-0.0484,-0.0476,-0.0448,-0.0432,-0.0406,-0.0373,-0.0347,-0.0335,-0.0333,-0.0292,-0.0308,-0.0308,-0.0308,-0.027,-0.0267,-0.0264,-0.0304,-0.0304,-0.0305,0,0,-0.0557,-0.0553,-0.0562,-0.055,-0.0537,-0.0521,-0.0522,-0.0498,-0.0487,-0.0466,-0.0441,-0.0409,-0.0377,-0.0344,-0.0325,-0.031,-0.0295,-0.0304,-0.0305,-0.0269,-0.0266,-0.0263,-0.0249,-0.0245,-0.0302,-0.0302,-0.0302,0,-0.0571,-0.0577,-0.0561,-0.0562,-0.0557,-0.0531,-0.0533,-0.0514,-0.0485,-0.047,-0.0466,-0.0398,-0.0373,-0.0328,-0.0321,-0.0309,-0.0295,-0.0311,-0.027,-0.0266,-0.0263,-0.0249,-0.0244,-0.0302,-0.0302,-0.0302,-0.0302,0,-0.0591,-0.0597,-0.06,-0.0593,-0.0582,-0.0581,-0.0551,-0.0536,-0.0518,-0.0492,-0.045,-0.0406,-0.0365,-0.0348,-0.033,-0.0288,-0.0289,-0.0277,-0.0273,-0.026,-0.0247,-0.0241,-0.0303,-0.0303,-0.0303,-0.0303,0,0,-0.0623,-0.0618,-0.062,-0.0624,-0.06,-0.0595,-0.0574,-0.0546,-0.0532,-0.0491,-0.0464,-0.0405,-0.0377,-0.0353,-0.0319,-0.0283,-0.0249,-0.0272,-0.027,-0.0265,-0.0186,-0.0235,-0.0233,-0.0231,-0.023,-0.0229,-0.0191,0,-0.0646,-0.0665,-0.0647,-0.0657,-0.0663,-0.0627,-0.0611,-0.0578,-0.0544,-0.0509,-0.0447,-0.0411,-0.038,-0.0359,-0.0316,-0.0263,-0.0233,-0.0262,-0.0194,-0.0193,-0.0242,-0.0228,-0.0225,-0.0187,-0.0185,-0.0185,-0.0184,0,-0.067,-0.0681,-0.0704,-0.0695,-0.0693,-0.0692,-0.0661,-0.0639,-0.0575,-0.0546,-0.0487,-0.0439,-0.0369,-0.0353,-0.0253,-0.0274,-0.0235,-0.0196,-0.0194,-0.0228,-0.023,-0.0198,-0.0174,-0.0174,-0.0175,-0.0176,-0.0176,0,-0.071,-0.0716,-0.0741,-0.074,-0.0725,-0.0725,-0.071,-0.0657,-0.0639,-0.0568,-0.0547,-0.0453,-0.0415,-0.0336,-0.0257,-0.0252,-0.0162,-0.0144,-0.0152,-0.0156,-0.0117,-0.012,-0.0084,-0.0084,-0.0085,-0.0085,-0.0085,0,-0.0737,-0.0757,-0.0769,-0.0784,-0.0808,-0.0773,-0.0776,-0.0741,-0.069,-0.0671,-0.0574,-0.0545,-0.041,-0.0341,-0.0265,-0.0199,-0.0168,-0.0153,-0.0145,-0.0126,-0.0131,-0.0113,-0.0117,-0.0083,-0.0084,-0.0084,-0.0084,0,-0.0772,-0.0781,-0.0815,-0.0825,-0.0832,-0.0849,-0.0837,-0.0833,-0.0772,-0.0744,-0.0723,-0.0611,-0.052,-0.0402,-0.0278,-0.0227,-0.0148,-0.0138,-0.0144,-0.0138,-0.0163,-0.0168,-0.0131,-0.0133,-0.0134,-0.0135,-0.0135,0,-0.0788,-0.0813,-0.0862,-0.0894,-0.0906,-0.0925,-0.0938,-0.0888,-0.0877,-0.0792,-0.0785,-0.0687,-0.0608,-0.0457,-0.0344,-0.0207,-0.0193,-0.0154,-0.0136,-0.017,-0.0165,-0.0168,-0.0172,-0.0137,-0.0137,-0.0138,-0.0138,0,-0.0819,-0.0848,-0.0881,-0.0953,-0.0993,-0.1023,-0.1032,-0.1023,-0.0956,-0.0912,-0.082,-0.0716,-0.0624,-0.0482,-0.0383,-0.0285,-0.017,-0.0165,-0.0161,-0.0144,-0.0176,-0.0171,-0.0174,-0.0142,-0.0141,-0.0141,-0.0141,0,-0.0846,-0.0886,-0.0942,-0.0994,-0.106,-0.1096,-0.1091,-0.1059,-0.1029,-0.0913,-0.0898,-0.0758,-0.0668,-0.0528,-0.0439,-0.0344,-0.0314,-0.0273,-0.0263,-0.0257,-0.0306,-0.0366,-0.0384,0,0,0,0,0,-0.0862,-0.0908,-0.0973,-0.1032,-0.1098,-0.1125,-0.1142,-0.1119,-0.1057,-0.0997,-0.0931,-0.0835,-0.0668,-0.0594,-0.0507,-0.0485,-0.0324,-0.0384,-0.0277,-0.0163,-0.0159,-0.0199,0,0,0,0,0,0,-0.0877,-0.0945,-0.0975,-0.1052,-0.1091,-0.1152,-0.1164,-0.1124,-0.1069,-0.0992,-0.09,-0.0821,-0.0665,-0.071,-0.0503,-0.0476,-0.04,-0.0297,-0.0295,-0.0166,-0.0162,-0.0158,-0.0198,0,0,0,0,0]}]]